Back to catalog

STARLINK-2581

AliveCommunicationsVLEO
NORAD 48412·PAYLOAD·🇺🇸 United States

Launched May 4, 2021 from Cape Canaveral Space Force Station

Loading…

Next Passes (next 24 hours)

TLE

FreshSource: CelesTrak SupGP

Epoch: Sep 14, 2026, 12:41 UTC

1 48412C 21038BM  26257.52895833  .00045709  00000+0  14706-2 0  2579
2 48412  53.1563 137.6476 0001224  97.0787  69.4714 15.31663739    11

Track STARLINK-2581 in real time with AllMySat

Download on the App Store